Lid_Strength_Index
5 5 4 4 4 3 3 3 3 2 2 2 2 2 2 1 1 1 1 2 1 1 1 2 0 1 1 2 2 2 2 2 2
5 5 5 4 3 3 3 3 3 2 2 2 2 2 1 1 1 1 1 2 1 2 2 2 1 1 1 1 1 2 2 2 2
5 5 5 4 4 3 3 2 2 2 2 2 2 2 1 1 1 1 1 2 1 1 2 2 2 1 0 1 1 2 2 2 2
5 6 4 4 4 4 3 2 2 2 2 2 2 2 2 1 1 1 1 1 1 2 1 2 2 1 1 1 1 2 2 2 1
5 5 4 4 4 3 3 3 3 3 2 2 2 2 2 2 1 1 1 1 1 1 2 1 2 2 1 1 1 2 2 2 1
6 5 5 4 4 4 3 3 3 3 2 2 2 2 2 2 2 2 2 1 1 1 2 2 2 2 1 1 1 2 2 1 2
6 6 5 6 5 4 3 3 3 3 3 2 2 2 2 2 2 2 1 1 1 1 1 2 2 2 1 1 1 2 1 1 2
5 5 6 5 4 4 3 3 3 3 2 2 2 2 2 2 2 1 1 1 1 1 1 1 2 2 2 2 1 1 2 2 2
6 7 6 6 4 4 3 3 3 3 3 3 2 2 3 2 2 2 2 2 2 1 1 1 2 2 2 3 2 3 3 2 2
7 6 5 5 4 3 3 3 3 3 3 2 2 3 2 2 2 2 2 2 2 2 2 1 3 3 3 3 2 5 5 3 2
6 6 6 5 4 4 3 3 3 2 2 2 3 3 3 2 2 2 2 2 2 2 2 2 2 3 3 3 3 7 7 5 3
5 6 6 5 4 3 3 3 3 2 3 3 3 3 3 2 2 2 2 2 2 2 2 2 2 3 3 3 3 8 8 6 3
6 6 6 4 3 3 3 3 2 3 3 3 3 3 2 2 2 2 2 2 2 2 2 2 2 3 3 5 4 9 9 7 3
6 5 6 5 6 4 3 3 3 3 3 3 2 2 2 2 2 2 2 2 2 2 2 3 3 4 4 4 5 6 8 8 3
5 5 5 5 5 5 5 3 3 3 4 2 2 2 2 2 2 2 2 2 2 2 2 3 4 5 4 4 4 6 9 8 6
5 5 5 4 4 4 4 3 3 4 3 2 3 3 3 3 2 2 2 2 3 3 3 4 4 4 4 4 3 3 8 9 8
5 5 5 5 5 5 5 4 3 3 3 3 3 3 3 3 3 3 2 2 2 3 3 4 4 4 4 4 3 3 5 6 7
5 5 5 4 5 5 5 4 4 3 3 2 3 3 3 3 3 3 6 10 7 4 6 4 3 4 3 3 3 3 6 6 5
5 5 5 5 5 5 4 4 4 3 2 2 3 4 5 6 6 7 8 9 11 14 13 12 13 10 6 7 8 11 12 12 11
6 5 5 5 5 5 5 5 4 4 4 4 4 5 5 7 7 7 7 7 7 9 12 15 14 14 13 11 11 12 12 11 10